{"data":{"norad_id":63578,"intl_designator":"2025-076K","name":"STARLINK-33719","alt_names":[],"object_type":"PAYLOAD","status":"ACTIVE","operator":null,"country":"US","launch_date":"2025-04-14","launch_site_code":"AFETR","launch_vehicle":null,"mission":null,"orbit_class":"UNKNOWN","rcs_meters":null,"size_class":null,"mass_kg":null,"dimensions":null,"purposes":["comms"],"wikipedia_slug":null,"has_3d_model":false,"image_url":null,"decayed_at":null,"tle_current":{"epoch":"2026-09-20T10:13:46.172640Z","epoch_age_seconds":158858,"freshness":"FRESH","line1":"1 63578U 25076K   26263.42622885  .00013414  00000+0  49597-3 0  9994","line2":"2 63578  42.9990 301.8549 0000501 171.5834 188.5026 15.27586439 81615","mean_motion":15.27586439,"eccentricity":5.01e-5,"inclination_deg":42.999,"raan_deg":301.8549,"arg_perigee_deg":171.5834,"mean_anomaly_deg":188.5026,"bstar":0.00049597,"rev_number":8161,"period_min":94.266351365535,"perigee_km":482.68607096751,"apogee_km":483.37355988241,"semimajor_km":6861.166815425,"source":"CELESTRAK","updated_at":"2026-09-21T09:00:35.046354Z"}}}